Hourly Data Report for October 20, 2014

All times are specified in Local Standard Time (LST). Add 1 hour to adjust for Daylight Saving Time where and when it is observed.

SAINT JOHN A
NEW BRUNSWICK

45°18'58.000" N
65°53'24.000" W
108.80 m
8104901
71609
YSJ

Download Data

Hourly Data (October 2014)
Hourly Data Report for October 20, 2014
Temp Definition
°C
Dew Point Temp Definition
°C
Rel Hum Definition
%
Wind Dir Definition
10's deg

Wind Spd Definition
km/h
Visibility Definition
km
Stn Press Definition
kPa
Hmdx Definition


Wind Chill Definition


Weather Definition


TIME
00:00 Legend Double Dagger 3.6 1.0 83 35 26 24.1 99.27     Rain Showers
01:00 Legend Double Dagger 3.3 1.2 86 34 23 24.1 99.22     Rain Showers
02:00 Legend Double Dagger 3.8 0.9 81 31 19 24.1 99.24     Cloudy
03:00 Legend Double Dagger 3.2 1.1 86 30 13 24.1 99.23     LegendNANA
04:00 Legend Double Dagger 4.0 0.5 78 29 18 24.1 99.28     LegendNANA
05:00 Legend Double Dagger 3.5 -0.5 75 29 16 24.1 99.36     Mainly Clear
06:00 Legend Double Dagger 3.0 -1.2 74 29 23 24.1 99.44     LegendNANA
07:00 Legend Double Dagger 2.8 -1.4 74 29 20 24.1 99.53     LegendNANA
08:00 Legend Double Dagger 3.9 -1.1 70 28 14 24.1 99.65     Mostly Cloudy
09:00 Legend Double Dagger 5.2 -1.7 61 28 24 24.1 99.68     LegendNANA
10:00 Legend Double Dagger 4.8 -1.9 62 29 27 24.1 99.75     LegendNANA
11:00 Legend Double Dagger 5.3 -2.5 57 30 25 24.1 99.77     Mostly Cloudy
12:00 Legend Double Dagger 5.3 -2.5 57 28 22 24.1 99.80     LegendNANA
13:00 Legend Double Dagger 5.9 -2.2 56 26 16 24.1 99.78     LegendNANA
14:00 Legend Double Dagger 7.9 -2.4 48 27 25 24.1 99.78     Mostly Cloudy
15:00 Legend Double Dagger 7.8 -2.5 48 24 29 24.1 99.76     LegendNANA
16:00 Legend Double Dagger 8.1 -2.5 47 26 21 24.1 99.78     LegendNANA
17:00 Legend Double Dagger 7.4 -1.8 52 26 15 24.1 99.84     Mainly Clear
18:00 Legend Double Dagger 6.2 -1.7 57 24 13 24.1 99.89     LegendNANA
19:00 Legend Double Dagger 5.6 -1.8 59 24 11 24.1 99.97     LegendNANA
20:00 Legend Double Dagger 5.1 -1.8 61 24 12 24.1 100.04     Clear
21:00 Legend Double Dagger 4.5 -1.9 63 25 9 24.1 100.12     LegendNANA
22:00 Legend Double Dagger 4.5 -2.4 61 25 12 24.1 100.16     LegendNANA
23:00 Legend Double Dagger 4.2 -2.2 63 26 8 24.1 100.19     Clear

Notes on Data Quality.

Legend

  • E = Estimated
  • M = Missing
  • NA = Not Available
  • ‡ = Partner data that is not subject to review by the National Climate Archives
Date modified: